{"data":{"norad_id":65977,"intl_designator":"2025-230D","name":"SDA_1667","alt_names":[],"object_type":"PAYLOAD","status":"ACTIVE","operator":null,"country":"US","launch_date":"2025-10-15","launch_site_code":"AFWTR","launch_vehicle":null,"mission":null,"orbit_class":"UNKNOWN","rcs_meters":null,"size_class":null,"mass_kg":null,"dimensions":null,"purposes":[],"wikipedia_slug":null,"has_3d_model":false,"image_url":null,"decayed_at":null,"tle_current":{"epoch":"2026-05-25T05:09:06.986880Z","epoch_age_seconds":53592,"freshness":"FRESH","line1":"1 65977U 25230D   26145.21466420 -.00005308  00000+0 -50031-2 0  9997","line2":"2 65977  81.3001 233.2448 0001420  99.8503 260.2812 13.81496199 30618","mean_motion":13.81496199,"eccentricity":0.000142,"inclination_deg":81.3001,"raan_deg":233.2448,"arg_perigee_deg":99.8503,"mean_anomaly_deg":260.2812,"bstar":-0.0050031,"rev_number":3061,"period_min":104.23481447451,"perigee_km":957.54287817329,"apogee_km":959.62650713401,"semimajor_km":7336.7216926536,"source":"CELESTRAK","updated_at":"2026-05-25T13:38:05.876973Z"}}}